When you browse on this site, cookies collect data to enhance your experience and personalize the content and advertising you see.
Visit our Privacy Policy to learn more. By continuing to use the site, you agree to this use of cookies and data.
  • în România
  • Lista ţărilor
  • Pe 7 zile
  • Temperatura apei
  • Meteo pe hartă
  • Widget-uri
  • user-avatar
    Intrare

    Meteo pe oră la Chiclayo

    Astăzi, 28 Mai, Joi

    Timp Temperatura Precipitaţii Vânt Presiune Umiditate
    00:00 +23°C° 0 mm 2 m/s 758 mmHg 80%
    01:00 +23°C° 0 mm 2 m/s 758 mmHg 81%
    02:00 +21°C° 0 mm 2 m/s 758 mmHg 82%
    03:00 +21°C° 0 mm 2 m/s 758 mmHg 83%
    04:00 +22°C° 0 mm 1 m/s 758 mmHg 85%
    05:00 +21°C° 0 mm 2 m/s 758 mmHg 85%
    06:00 +21°C° 0 mm 2 m/s 759 mmHg 84%
    07:00 +21°C° 0 mm 2 m/s 759 mmHg 84%
    08:00 +24°C° 0 mm 2 m/s 759 mmHg 77%
    09:00 +25°C° 0 mm 2 m/s 759 mmHg 69%
    10:00 +27°C° 0 mm 3 m/s 759 mmHg 62%
    11:00 +28°C° 0 mm 3 m/s 759 mmHg 59%
    12:00 +29°C° 0 mm 4 m/s 758 mmHg 56%
    13:00 +29°C° 0 mm 5 m/s 757 mmHg 53%
    14:00 +29°C° 0 mm 5 m/s 757 mmHg 54%
    15:00 +28°C° 0 mm 5 m/s 757 mmHg 56%
    16:00 +28°C° 0 mm 5 m/s 757 mmHg 57%
    17:00 +27°C° 0 mm 5 m/s 757 mmHg 63%
    18:00 +25°C° 0 mm 5 m/s 758 mmHg 68%
    19:00 +23°C° 0 mm 4 m/s 758 mmHg 74%
    20:00 +23°C° 0 mm 4 m/s 759 mmHg 74%
    21:00 +24°C° 0 mm 3 m/s 759 mmHg 75%
    22:00 +22°C° 0 mm 3 m/s 760 mmHg 75%
    23:00 +22°C° 0 mm 3 m/s 759 mmHg 76%

    Mâine, 29 Mai, Vineri

    Timp Temperatura Precipitaţii Vânt Presiune Umiditate
    00:00 +23°C° 0 mm 2 m/s 759 mmHg 77%
    01:00 +23°C° 0 mm 2 m/s 759 mmHg 79%
    02:00 +23°C° 0 mm 2 m/s 759 mmHg 80%
    03:00 +21°C° 0 mm 2 m/s 759 mmHg 81%
    04:00 +21°C° 0 mm 3 m/s 758 mmHg 83%
    05:00 +21°C° 0 mm 3 m/s 758 mmHg 82%
    06:00 +21°C° 0 mm 3 m/s 759 mmHg 82%
    07:00 +21°C° 0 mm 3 m/s 759 mmHg 82%
    08:00 +24°C° 0 mm 3 m/s 759 mmHg 74%
    09:00 +26°C° 0 mm 3 m/s 759 mmHg 66%
    10:00 +28°C° 0 mm 3 m/s 759 mmHg 59%
    11:00 +29°C° 0 mm 4 m/s 758 mmHg 55%
    12:00 +30°C° 0 mm 5 m/s 758 mmHg 52%
    13:00 +32°C° 0 mm 5 m/s 757 mmHg 49%
    14:00 +30°C° 0 mm 6 m/s 757 mmHg 52%
    15:00 +29°C° 0 mm 6 m/s 756 mmHg 54%
    16:00 +28°C° 0 mm 6 m/s 756 mmHg 57%
    17:00 +27°C° 0 mm 6 m/s 756 mmHg 64%
    18:00 +24°C° 0 mm 6 m/s 757 mmHg 71%
    19:00 +22°C° 0 mm 5 m/s 758 mmHg 77%
    20:00 +22°C° 0 mm 5 m/s 758 mmHg 79%
    21:00 +22°C° 0 mm 5 m/s 759 mmHg 80%
    22:00 +22°C° 0 mm 4 m/s 759 mmHg 81%
    23:00 +21°C° 0 mm 4 m/s 759 mmHg 82%

    Poimâine, 30 Mai, Sâmbătă

    Timp Temperatura Precipitaţii Vânt Presiune Umiditate
    00:00 +21°C° 0 mm 4 m/s 759 mmHg 83%
    01:00 +21°C° 0 mm 4 m/s 759 mmHg 84%
    02:00 +21°C° 0 mm 4 m/s 758 mmHg 85%
    03:00 +21°C° 0 mm 4 m/s 758 mmHg 85%
    04:00 +20°C° 0 mm 3 m/s 758 mmHg 86%
    05:00 +21°C° 0 mm 3 m/s 758 mmHg 86%
    06:00 +21°C° 0 mm 3 m/s 758 mmHg 85%
    07:00 +21°C° 0 mm 3 m/s 759 mmHg 85%
    08:00 +22°C° 0 mm 3 m/s 759 mmHg 77%
    09:00 +25°C° 0 mm 3 m/s 759 mmHg 70%
    10:00 +27°C° 0 mm 3 m/s 759 mmHg 62%
    11:00 +28°C° 0 mm 4 m/s 758 mmHg 58%
    12:00 +29°C° 0 mm 5 m/s 758 mmHg 54%
    13:00 +30°C° 0 mm 6 m/s 757 mmHg 50%
    14:00 +29°C° 0 mm 6 m/s 757 mmHg 53%
    15:00 +28°C° 0 mm 7 m/s 756 mmHg 57%
    16:00 +27°C° 0 mm 7 m/s 756 mmHg 60%
    17:00 +26°C° 0 mm 6 m/s 756 mmHg 65%
    18:00 +23°C° 0 mm 6 m/s 757 mmHg 70%
    19:00 +22°C° 0 mm 5 m/s 757 mmHg 74%
    20:00 +22°C° 0 mm 5 m/s 757 mmHg 76%
    21:00 +22°C° 0 mm 5 m/s 758 mmHg 77%
    22:00 +22°C° 0 mm 4 m/s 759 mmHg 79%
    23:00 +21°C° 0 mm 4 m/s 759 mmHg 80%

    31 Mai, Duminică

    Timp Temperatura Precipitaţii Vânt Presiune Umiditate
    00:00 +21°C° 0 mm 4 m/s 759 mmHg 81%
    01:00 +21°C° 0 mm 4 m/s 759 mmHg 83%
    02:00 +21°C° 0 mm 4 m/s 758 mmHg 83%
    03:00 +21°C° 0 mm 4 m/s 758 mmHg 83%
    04:00 +21°C° 0 mm 4 m/s 758 mmHg 83%
    05:00 +21°C° 0 mm 4 m/s 758 mmHg 84%
    06:00 +21°C° 0 mm 3 m/s 759 mmHg 84%
    07:00 +20°C° 0 mm 3 m/s 759 mmHg 84%
    08:00 +22°C° 0 mm 4 m/s 759 mmHg 77%
    09:00 +25°C° 0 mm 4 m/s 759 mmHg 69%
    10:00 +27°C° 0 mm 4 m/s 759 mmHg 62%
    11:00 +27°C° 0 mm 5 m/s 759 mmHg 59%
    12:00 +28°C° 0 mm 6 m/s 758 mmHg 55%
    13:00 +29°C° 0 mm 7 m/s 758 mmHg 52%
    14:00 +28°C° 0 mm 7 m/s 757 mmHg 54%
    15:00 +28°C° 0 mm 7 m/s 757 mmHg 57%
    16:00 +27°C° 0 mm 7 m/s 756 mmHg 59%
    17:00 +26°C° 0 mm 6 m/s 757 mmHg 64%
    18:00 +23°C° 0 mm 6 m/s 757 mmHg 70%
    19:00 +22°C° 0 mm 6 m/s 757 mmHg 75%
    20:00 +22°C° 0 mm 6 m/s 758 mmHg 77%
    21:00 +21°C° 0 mm 5 m/s 758 mmHg 78%
    22:00 +21°C° 0 mm 5 m/s 759 mmHg 79%
    23:00 +21°C° 0 mm 5 m/s 759 mmHg 80%

    1 Iunie, Luni

    Timp Temperatura Precipitaţii Vânt Presiune Umiditate
    00:00 +21°C° 0 mm 5 m/s 759 mmHg 81%
    01:00 +21°C° 0 mm 5 m/s 758 mmHg 81%
    02:00 +21°C° 0 mm 4 m/s 758 mmHg 82%
    03:00 +21°C° 0 mm 4 m/s 758 mmHg 84%
    04:00 +20°C° 0 mm 4 m/s 758 mmHg 85%
    05:00 +20°C° 0 mm 4 m/s 758 mmHg 85%
    06:00 +20°C° 0 mm 4 m/s 759 mmHg 85%
    07:00 +20°C° 0 mm 4 m/s 759 mmHg 85%
    08:00 +22°C° 0 mm 4 m/s 759 mmHg 78%
    09:00 +23°C° 0 mm 4 m/s 759 mmHg 71%
    10:00 +26°C° 0 mm 4 m/s 760 mmHg 63%
    11:00 +27°C° 0 mm 5 m/s 759 mmHg 59%
    12:00 +28°C° 0 mm 5 m/s 758 mmHg 55%
    13:00 +29°C° 0 mm 6 m/s 758 mmHg 51%
    14:00 +28°C° 0 mm 6 m/s 757 mmHg 54%
    15:00 +27°C° 0 mm 6 m/s 757 mmHg 56%
    16:00 +27°C° 0 mm 7 m/s 756 mmHg 58%
    17:00 +24°C° 0 mm 7 m/s 757 mmHg 64%
    18:00 +23°C° 0 mm 6 m/s 757 mmHg 70%
    19:00 +21°C° 0 mm 6 m/s 758 mmHg 76%
    20:00 +21°C° 0 mm 6 m/s 758 mmHg 77%
    21:00 +21°C° 0 mm 5 m/s 758 mmHg 78%
    22:00 +21°C° 0 mm 5 m/s 759 mmHg 79%
    23:00 +21°C° 0 mm 5 m/s 759 mmHg 80%

    2 Iunie, Marţi

    Timp Temperatura Precipitaţii Vânt Presiune Umiditate
    00:00 +21°C° 0 mm 5 m/s 759 mmHg 81%
    01:00 +20°C° 0 mm 5 m/s 758 mmHg 81%
    02:00 +20°C° 0 mm 4 m/s 758 mmHg 83%
    03:00 +20°C° 0 mm 4 m/s 758 mmHg 84%
    04:00 +20°C° 0 mm 4 m/s 758 mmHg 86%
    05:00 +20°C° 0 mm 4 m/s 758 mmHg 86%
    06:00 +20°C° 0 mm 4 m/s 758 mmHg 86%
    07:00 +20°C° 0 mm 4 m/s 759 mmHg 86%
    08:00 +21°C° 0 mm 4 m/s 759 mmHg 78%
    09:00 +23°C° 0 mm 4 m/s 759 mmHg 71%
    10:00 +25°C° 0 mm 4 m/s 759 mmHg 64%
    11:00 +26°C° 0 mm 5 m/s 759 mmHg 60%
    12:00 +28°C° 0 mm 5 m/s 758 mmHg 56%
    13:00 +29°C° 0 mm 6 m/s 757 mmHg 52%
    14:00 +28°C° 0 mm 6 m/s 757 mmHg 55%
    15:00 +27°C° 0 mm 7 m/s 756 mmHg 58%
    16:00 +26°C° 0 mm 7 m/s 756 mmHg 60%
    17:00 +24°C° 0 mm 7 m/s 756 mmHg 65%
    18:00 +22°C° 0 mm 6 m/s 757 mmHg 70%
    19:00 +21°C° 0 mm 6 m/s 757 mmHg 75%
    20:00 +21°C° 0 mm 6 m/s 758 mmHg 77%
    21:00 +21°C° 0 mm 5 m/s 758 mmHg 78%
    22:00 +20°C° 0 mm 5 m/s 759 mmHg 79%
    23:00 +20°C° 0 mm 5 m/s 758 mmHg 80%
    Arată mai mult